Weather History for Eastover, SC

Change the Weather History Date:

Tuesday, April 22, 2014

  Actual Average Record
Temperature  
Mean Temperature 64 °F -  
Max Temperature 84 °F 73 °F 87 °F (1999)
Min Temperature 45 °F 53 °F 45 °F (2009)
Degree Days  
Heating Degree Days 1    
Growing Degree Days 14 (Base 50)    
Moisture  
Dew Point 53 °F    
Average Humidity 73    
Maximum Humidity 97    
Minimum Humidity 34    
Precipitation  
Precipitation 0.01 in - - ()
Sea Level Pressure  
Sea Level Pressure 29.83 in    
Wind  
Wind Speed 4 mph (West)    
Max Wind Speed 15 mph    
Max Gust Speed 21 mph    
Visibility 10 miles    
Events Rain    
Averages and records for this station are not official NWS values.
T = Trace of Precipitation, MM = Missing Value Source: NWS Daily Summary

Daily Weather History Graph

Daily Weather History Graph

Search for Another Location

Airport:

Trip Planner

Search our weather history database for the weather conditions in past years. The results will help you decide how hot, cold, wet, or windy it might be!

Date:

Astronomy

Apr. 22, 2014 Rise Set
Actual Time 6:43 AM EDT 7:59 PM EDT
Civil Twilight 6:17 AM EDT 8:26 PM EDT
Nautical Twilight 5:46 AM EDT 8:57 PM EDT
Astronomical Twilight 5:14 AM EDT 9:29 PM EDT
Moon 2:12 AM EDT (4/22) 1:18 PM EDT (4/22)
Length of Visible Light 14h 08m
Length of Day
13h 15m
Last Quarter, 46% of the Moon is Illuminated
Apr 22
Last Quarter
Apr 29
New
May 6
First Quarter
May 14
Full
May 21
Last Quarter

Hourly Weather History & Observations

Time (EDT) Temp. Dew Point Humidity Pressure Visibility Wind Dir Wind Speed Gust Speed Precip Events Conditions
12:58 AM 47.7 °F 44.4 °F 89% 29.95 in 10.0 mi Calm Calm - N/A   Scattered Clouds
1:58 AM 46.9 °F 44.4 °F 91% 29.94 in 10.0 mi Calm Calm - N/A   Partly Cloudy
2:58 AM 46.8 °F 44.1 °F 90% 29.91 in 10.0 mi Calm Calm - N/A   Scattered Clouds
3:58 AM 46.8 °F 44.2 °F 91% 29.90 in 10.0 mi Calm Calm - N/A   Mostly Cloudy
4:58 AM 45.9 °F 43.9 °F 93% 29.89 in 10.0 mi Calm Calm - N/A   Scattered Clouds
5:58 AM 45.7 °F 44.1 °F 94% 29.88 in 10.0 mi NNE 1.2 mph - N/A   Scattered Clouds
6:58 AM 45.0 °F 43.9 °F 96% 29.88 in 10.0 mi East 2.3 mph - N/A   Scattered Clouds
7:58 AM 50.2 °F 48.0 °F 92% 29.88 in 10.0 mi Calm Calm - N/A   Scattered Clouds
8:59 AM 57.4 °F 48.2 °F 71% 29.87 in 10.0 mi SSW 4.6 mph - N/A   Partly Cloudy
9:58 AM 65.5 °F 50.0 °F 57% 29.87 in 10.0 mi SW 4.6 mph - N/A   Partly Cloudy
10:58 AM 73.2 °F 51.8 °F 47% 29.86 in 10.0 mi West 6.9 mph - N/A   Partly Cloudy
11:58 AM 78.4 °F 53.4 °F 42% 29.84 in 10.0 mi WNW 10.4 mph - N/A   Mostly Cloudy
12:59 PM 78.4 °F 53.6 °F 42% 29.82 in 10.0 mi Variable 6.9 mph - N/A   Mostly Cloudy
1:58 PM 82.9 °F 51.8 °F 34% 29.79 in 10.0 mi West 13.8 mph 20.7 mph N/A   Mostly Cloudy
2:59 PM 83.8 °F 52.3 °F 34% 29.78 in 10.0 mi WNW 15.0 mph 20.7 mph N/A   Scattered Clouds
3:58 PM 79.7 °F 52.5 °F 39% 29.76 in 10.0 mi West 10.4 mph - N/A   Overcast
4:07 PM 78.8 °F 53.6 °F 42% 29.75 in 10.0 mi WNW 10.4 mph - N/A   Light Drizzle
4:58 PM 77.7 °F 53.8 °F 43% 29.76 in 10.0 mi West 11.5 mph - 0.00 in   Overcast
5:22 PM 68.0 °F 60.8 °F 78% 29.77 in 10.0 mi NNW 8.1 mph - N/A Rain Light Rain
5:58 PM 69.4 °F 60.8 °F 74% 29.78 in 10.0 mi West 10.4 mph - 0.01 in Rain Light Rain
6:58 PM 67.8 °F 61.0 °F 79% 29.78 in 10.0 mi West 8.1 mph - 0.00 in Rain Light Rain
7:28 PM 68.0 °F 60.8 °F 78% 29.76 in 10.0 mi WSW 4.6 mph - N/A   Mostly Cloudy
7:58 PM 66.7 °F 60.6 °F 81% 29.77 in 10.0 mi West 4.6 mph - 0.00 in   Light Drizzle
8:21 PM 64.4 °F 60.8 °F 88% 29.77 in 10.0 mi SSW 3.5 mph - N/A   Mostly Cloudy
8:58 PM 64.8 °F 61.5 °F 89% 29.78 in 10.0 mi WSW 3.5 mph - 0.00 in   Mostly Cloudy
9:58 PM 64.4 °F 62.1 °F 92% 29.81 in 10.0 mi SW 8.1 mph - N/A   Mostly Cloudy
10:58 PM 63.1 °F 61.2 °F 93% 29.82 in 10.0 mi WSW 5.8 mph - N/A   Mostly Cloudy
11:58 PM 62.2 °F 61.3 °F 97% 29.80 in 10.0 mi West 4.6 mph - N/A   Clear